Wind_Speed
7 7 7 7 6 5 5 4 4 4 4 3 4 4 3 4 3 4 4 4 3 3 4 3 3 3 4 4 4 5 5 4 5 4 3 3 3 3 3 3 4 4 4
8 8 7 7 6 6 6 5 5 5 5 4 4 4 4 4 3 4 4 3 3 3 3 3 3 4 5 5 5 5 5 5 4 3 3 4 3 4 4 4 4 4 5
8 8 8 8 7 7 8 7 6 5 5 5 5 4 4 4 4 4 4 3 3 3 4 4 4 5 5 5 5 5 6 5 5 5 4 4 4 4 4 4 4 5 5
9 9 9 8 8 8 8 8 7 6 6 5 5 4 5 5 5 5 5 4 4 4 4 5 5 5 5 6 6 6 6 5 5 6 5 5 5 5 4 5 5 5 6
11 10 10 10 9 9 9 8 7 7 7 6 6 5 5 5 5 5 5 4 4 5 5 5 5 6 6 6 7 7 6 5 6 6 5 6 6 6 5 5 6 7 7
12 11 11 11 10 9 9 9 9 8 8 8 7 6 6 6 5 5 5 4 4 5 5 5 5 5 6 6 7 6 6 6 6 6 6 6 6 7 7 7 7 7 7
13 12 11 11 11 10 10 10 9 9 9 8 8 7 7 7 7 6 6 6 6 6 6 6 6 6 7 7 6 6 6 6 7 7 7 6 7 7 7 7 7 7 7
13 13 12 12 12 11 11 10 10 10 9 8 8 7 7 7 7 6 6 6 6 6 6 7 6 7 7 6 6 6 6 7 7 7 7 7 7 7 7 7 7 7 7
13 13 13 13 12 12 11 11 10 10 10 9 8 8 7 7 6 6 6 6 6 6 6 6 6 6 6 6 6 6 6 7 7 7 7 8 8 8 8 7 7 7 7
13 13 13 13 13 11 11 10 10 10 10 10 10 9 8 8 8 7 7 6 7 7 6 6 6 6 6 6 6 6 6 7 7 7 8 8 8 8 8 8 8 8 8
12 12 13 13 12 11 11 10 10 10 10 10 10 10 9 9 8 8 8 7 7 7 6 6 6 7 7 7 7 7 7 7 7 7 7 8 8 9 8 8 8 8 8
12 11 11 11 12 11 11 11 10 10 10 10 10 10 9 9 9 8 8 8 7 7 6 6 7 8 8 8 7 7 8 8 8 8 8 8 8 8 8 8 8 8 8
12 11 10 11 12 11 11 11 11 11 11 10 10 10 10 9 9 9 9 8 8 8 8 8 8 8 8 8 8 8 8 8 9 9 9 9 9 9 9 9 9 9 9
12 12 11 12 12 12 11 11 11 11 11 11 11 10 10 10 10 10 10 9 9 9 9 9 9 9 9 9 9 9 9 9 9 10 10 10 10 10 11 11 11 11 11
12 12 11 11 12 12 12 12 11 11 11 11 11 11 11 11 11 11 11 10 10 10 10 10 10 10 10 10 10 10 10 10 10 10 10 11 11 11 12 12 12 13 13
12 12 12 12 12 12 12 11 11 11 11 11 11 12 11 12 12 12 12 11 11 12 12 12 11 11 12 11 11 10 11 11 11 11 11 11 12 12 13 13 14 14 15
12 12 12 12 12 13 13 12 12 12 12 11 11 12 12 12 12 13 12 12 12 13 13 12 13 13 12 12 12 12 12 12 12 13 13 13 13 14 14 15 15 16 16
12 12 12 13 13 14 14 14 13 14 13 13 12 13 13 13 13 13 14 14 13 13 14 14 14 14 13 13 13 13 13 13 13 13 14 14 15 15 16 17 17 17 18
13 13 14 14 14 14 14 14 14 14 14 14 13 13 14 14 14 14 15 15 15 15 15 15 15 15 15 15 15 14 14 15 15 16 16 17 17 17 18 19 19 19 20
13 14 15 14 15 15 15 14 15 14 14 14 14 14 15 15 15 15 16 17 16 17 17 16 16 16 17 17 17 17 16 17 17 18 18 19 19 20 21 21 21 22 23
14 14 14 14 14 15 15 15 15 15 15 16 15 15 16 16 17 16 17 17 17 18 18 18 18 18 18 19 19 19 19 19 20 21 21 22 22 23 23 23 23 24 25
15 15 15 15 15 15 15 16 16 16 16 16 16 16 17 17 18 18 18 18 18 19 19 19 20 20 20 20 21 21 21 22 23 24 24 24 25 25 25 26 26 26 27
15 16 15 15 16 15 15 16 16 17 17 17 17 17 17 18 19 19 19 19 19 20 20 21 21 21 22 22 22 23 24 25 25 26 27 27 27 27 28 28 29 29 30
16 16 16 17 17 16 17 18 18 18 18 19 19 19 19 19 19 20 20 20 21 21 21 22 23 24 24 24 25 26 26 27 28 29 29 29 29 30 30 31 32 33 33
18 18 18 19 19 19 19 19 20 20 20 20 19 19 19 20 20 21 21 21 22 23 23 24 25 25 26 27 27 28 29 29 29 30 31 31 31 31 32 33 34 34 35
18 19 20 21 21 20 21 21 21 21 21 20 21 21 21 21 22 22 22 22 23 24 25 26 27 28 28 29 29 30 31 32 32 32 32 33 33 34 34 35 36 37 37
Wind_Direction
256 258 255 244 241 244 251 249 254 257 269 281 291 298 303 307 313 301 304 299 302 308 300 303 308 312 315 314 316 314 317 323 320 302 304 303 291 291 288 282 272 262 257
256 258 265 252 245 250 251 249 256 261 268 275 286 293 302 305 307 305 303 295 299 312 316 299 305 311 313 313 310 308 312 317 324 310 294 292 294 289 289 283 279 270 266
257 256 263 260 254 256 253 251 254 263 268 272 279 292 297 296 295 298 301 299 291 300 320 311 303 307 311 314 316 307 307 306 308 312 302 287 294 303 295 287 288 281 275
260 259 260 261 256 257 258 255 259 266 266 268 277 288 297 297 292 295 294 291 295 300 306 314 308 303 303 305 311 308 303 299 306 308 302 296 292 299 299 294 288 287 284
260 258 255 255 256 257 259 258 260 264 265 266 271 283 289 297 297 297 296 293 298 304 307 310 309 308 305 305 305 307 304 298 301 304 298 293 298 297 300 297 292 285 284
255 255 253 251 254 258 261 261 259 263 265 265 268 274 277 286 296 300 299 302 307 307 313 312 311 319 314 309 309 308 303 297 297 298 296 293 297 297 296 293 291 290 288
254 254 250 248 253 257 262 262 260 263 264 264 269 276 277 279 286 290 293 296 298 301 309 306 304 310 316 311 307 309 304 296 294 295 296 294 294 296 294 294 294 294 296
251 252 249 249 253 256 260 260 260 260 261 264 269 274 278 280 283 288 291 294 298 300 302 310 313 317 317 316 314 311 307 303 297 292 293 292 296 296 293 296 296 294 296
250 250 250 252 253 257 261 262 261 259 260 263 269 274 277 276 277 287 295 299 302 305 308 310 315 319 322 326 324 315 311 307 301 298 295 291 292 294 291 293 297 297 295
251 252 251 251 251 253 256 260 262 262 264 263 266 270 272 274 280 286 291 299 305 304 306 311 317 324 325 325 322 318 315 314 308 301 298 293 291 294 293 292 295 298 296
249 250 251 250 249 249 252 258 261 265 269 268 265 269 269 271 276 281 286 294 301 301 305 309 313 319 319 320 320 324 318 315 315 310 307 301 292 293 294 292 295 298 299
248 250 251 247 249 250 251 255 261 267 269 268 266 267 268 270 272 275 282 289 295 298 303 305 307 307 312 314 316 318 319 317 313 309 307 307 302 296 293 296 296 300 301
255 254 253 251 251 252 252 254 261 267 270 267 262 263 266 269 271 272 278 285 288 291 298 299 299 305 309 310 311 314 315 312 311 310 308 304 302 300 298 297 294 294 296
257 260 254 254 254 253 254 256 262 268 270 268 263 260 262 265 268 269 274 278 284 288 291 294 295 300 305 309 309 311 314 310 308 307 305 301 298 297 293 292 290 289 292
256 256 251 254 255 253 254 259 264 267 270 268 262 260 259 260 266 268 273 276 281 284 286 290 294 296 298 302 303 304 308 308 305 304 304 300 298 298 296 293 290 290 291
257 252 252 256 256 255 256 258 264 267 269 268 263 261 260 260 265 268 272 277 281 282 284 288 292 294 294 296 298 298 301 303 303 300 299 299 298 298 296 294 293 293 292
256 252 253 255 257 258 255 255 262 265 268 268 264 262 263 264 265 267 272 277 281 283 284 287 290 293 294 294 295 294 296 299 299 298 297 297 298 298 297 296 294 293 292
257 254 253 257 259 261 256 253 259 264 266 265 264 262 263 264 265 267 271 275 279 282 284 285 287 289 291 292 293 292 294 295 295 297 298 297 297 296 296 296 295 294 292
258 259 259 260 258 260 258 256 260 262 265 265 264 264 262 264 266 268 272 273 276 279 281 283 284 286 288 289 291 291 291 291 292 294 295 296 296 296 296 296 295 294 294
259 259 260 259 258 260 259 258 261 263 265 264 264 264 265 266 269 272 275 274 275 277 277 280 283 285 287 288 288 289 288 288 289 291 292 293 294 295 295 295 295 294 294
257 258 258 260 261 261 260 258 260 262 264 263 262 265 269 269 271 274 277 275 275 276 276 278 281 283 285 286 287 288 287 287 287 290 291 291 292 294 295 295 294 293 293
255 256 260 259 262 263 263 261 259 261 262 264 266 267 270 271 272 274 276 275 274 275 275 276 279 282 284 285 287 287 287 288 288 290 291 292 293 293 293 293 293 293 293
256 257 261 263 263 262 262 263 261 260 262 264 267 269 270 272 272 274 275 276 275 275 277 280 281 283 284 285 287 287 288 288 289 290 290 291 291 291 292 292 292 292 294
258 257 260 262 264 265 264 262 262 262 263 266 268 270 271 270 271 274 273 275 276 277 280 282 283 284 285 285 286 288 289 290 291 291 291 291 290 291 291 292 293 294 295
257 258 261 263 264 265 264 262 262 263 265 266 269 271 271 272 274 276 275 274 276 278 281 283 284 285 286 286 287 288 289 290 291 291 292 292 291 291 292 292 293 294 294
259 260 262 263 263 264 265 264 264 264 265 267 270 272 271 273 275 277 278 278 278 279 281 283 284 285 286 286 287 288 288 289 290 291 291 291 291 291 292 293 294 294 293
Height
5893 5893 5894 5894 5895 5896 5896 5897 5897 5897 5897 5897 5898 5898 5898 5897 5897 5898 5897 5897 5898 5898 5898 5898 5898 5898 5898 5898 5898 5897 5897 5896 5896 5896 5896 5896 5896 5896 5896 5896 5896 5896 5896
5892 5893 5893 5894 5894 5895 5896 5896 5896 5897 5897 5897 5897 5897 5897 5897 5897 5897 5897 5897 5897 5897 5897 5897 5897 5897 5897 5897 5897 5896 5896 5896 5896 5895 5895 5895 5895 5895 5895 5895 5895 5895 5895
5891 5892 5893 5893 5894 5894 5895 5895 5896 5896 5896 5897 5897 5897 5897 5896 5896 5897 5896 5896 5897 5897 5897 5897 5897 5897 5896 5896 5896 5895 5895 5895 5895 5895 5894 5894 5894 5894 5894 5894 5894 5894 5894
5890 5891 5891 5892 5893 5893 5894 5895 5895 5895 5896 5896 5896 5896 5896 5896 5896 5896 5896 5896 5896 5896 5896 5896 5896 5896 5895 5895 5895 5894 5894 5894 5894 5893 5893 5893 5893 5893 5893 5893 5892 5892 5892
5888 5889 5890 5891 5892 5892 5893 5894 5894 5894 5895 5895 5895 5896 5896 5895 5895 5895 5895 5895 5895 5895 5895 5895 5895 5894 5894 5894 5893 5893 5893 5893 5893 5892 5892 5892 5892 5892 5892 5891 5891 5891 5891
5887 5887 5888 5889 5890 5891 5892 5892 5893 5893 5894 5894 5894 5895 5895 5895 5895 5894 5894 5894 5894 5894 5894 5893 5893 5893 5893 5892 5892 5892 5892 5892 5891 5891 5891 5891 5891 5890 5890 5890 5889 5889 5889
5885 5886 5887 5888 5889 5890 5890 5891 5892 5892 5892 5893 5893 5893 5893 5893 5893 5893 5893 5893 5893 5893 5892 5892 5892 5892 5891 5891 5890 5890 5890 5890 5890 5890 5889 5889 5889 5889 5888 5888 5888 5888 5887
5883 5884 5885 5886 5887 5888 5889 5889 5890 5891 5891 5891 5892 5892 5892 5893 5892 5892 5892 5892 5892 5891 5891 5891 5891 5890 5890 5889 5889 5889 5888 5888 5888 5888 5888 5888 5887 5887 5887 5887 5887 5886 5886
5880 5882 5883 5884 5885 5886 5887 5888 5888 5889 5889 5890 5890 5891 5891 5891 5891 5891 5891 5891 5890 5890 5890 5890 5889 5889 5889 5888 5888 5887 5887 5887 5886 5886 5886 5886 5886 5886 5885 5885 5885 5885 5884
5878 5879 5881 5882 5883 5884 5885 5886 5887 5887 5887 5888 5888 5889 5889 5889 5889 5889 5890 5889 5889 5889 5888 5888 5888 5888 5887 5887 5886 5886 5885 5885 5885 5884 5884 5884 5884 5884 5884 5883 5883 5883 5882
5875 5877 5878 5879 5880 5882 5883 5884 5884 5885 5885 5886 5886 5887 5887 5887 5887 5888 5888 5888 5888 5887 5887 5887 5887 5886 5886 5886 5885 5884 5884 5883 5883 5882 5882 5882 5881 5881 5881 5881 5881 5881 5880
5873 5874 5875 5877 5878 5880 5881 5881 5882 5883 5883 5884 5884 5884 5885 5885 5886 5886 5886 5886 5886 5886 5886 5885 5885 5885 5884 5884 5883 5883 5882 5882 5881 5881 5880 5880 5879 5879 5879 5879 5878 5878 5878
5871 5872 5873 5875 5876 5877 5878 5879 5880 5880 5881 5881 5882 5882 5883 5883 5883 5884 5884 5884 5884 5884 5884 5884 5883 5883 5883 5882 5882 5881 5880 5880 5879 5879 5878 5877 5877 5877 5876 5876 5876 5875 5875
5868 5870 5871 5873 5874 5875 5876 5877 5877 5878 5878 5879 5879 5880 5880 5881 5881 5882 5882 5882 5882 5882 5882 5882 5881 5881 5881 5880 5879 5879 5878 5878 5877 5876 5876 5875 5874 5874 5873 5873 5873 5872 5872
5866 5867 5869 5870 5871 5872 5873 5874 5875 5875 5876 5876 5877 5877 5878 5878 5879 5879 5880 5880 5880 5880 5880 5880 5879 5879 5878 5878 5877 5877 5876 5875 5875 5874 5873 5872 5871 5871 5870 5870 5869 5869 5868
5863 5865 5866 5867 5868 5869 5870 5871 5872 5873 5873 5874 5874 5875 5875 5876 5876 5876 5877 5877 5877 5878 5877 5877 5877 5876 5876 5875 5875 5874 5874 5873 5872 5871 5870 5869 5869 5868 5867 5866 5866 5865 5864
5860 5862 5863 5864 5865 5866 5867 5868 5869 5870 5870 5871 5871 5872 5872 5873 5873 5873 5874 5874 5874 5874 5874 5874 5874 5873 5873 5872 5872 5871 5871 5870 5869 5868 5867 5866 5865 5865 5864 5863 5862 5861 5860
5857 5859 5860 5861 5862 5863 5863 5864 5865 5866 5867 5867 5868 5868 5869 5869 5870 5870 5871 5871 5871 5871 5871 5871 5870 5870 5869 5869 5868 5868 5867 5866 5866 5865 5864 5863 5862 5861 5860 5859 5857 5856 5855
5853 5855 5856 5858 5859 5859 5860 5861 5862 5863 5863 5864 5864 5865 5865 5866 5866 5866 5867 5867 5867 5867 5867 5867 5867 5866 5866 5865 5865 5864 5863 5862 5862 5861 5860 5859 5858 5856 5855 5854 5852 5851 5849
5850 5852 5853 5854 5855 5856 5856 5857 5858 5859 5860 5860 5861 5861 5862 5862 5862 5862 5863 5863 5863 5863 5863 5863 5863 5862 5861 5861 5860 5860 5859 5858 5857 5856 5855 5854 5853 5852 5850 5848 5847 5845 5843
5847 5848 5849 5850 5851 5852 5852 5853 5854 5855 5856 5856 5857 5857 5858 5858 5858 5858 5858 5858 5858 5858 5858 5858 5858 5857 5857 5856 5855 5855 5854 5853 5852 5851 5850 5848 5847 5845 5844 5842 5840 5838 5836
5844 5845 5845 5846 5847 5848 5848 5849 5850 5851 5852 5852 5853 5853 5853 5853 5854 5854 5853 5853 5853 5853 5853 5853 5853 5852 5852 5851 5850 5849 5848 5847 5846 5845 5843 5842 5840 5839 5837 5835 5833 5831 5829
5840 5841 5842 5842 5843 5844 5844 5845 5846 5847 5847 5848 5848 5848 5848 5849 5849 5849 5848 5848 5848 5848 5848 5847 5847 5846 5846 5845 5844 5843 5842 5840 5839 5837 5836 5835 5833 5831 5829 5827 5825 5822 5820
5836 5837 5838 5839 5839 5840 5840 5841 5842 5842 5843 5843 5843 5844 5844 5844 5844 5844 5843 5843 5843 5843 5842 5842 5841 5840 5839 5838 5837 5836 5835 5833 5832 5830 5828 5827 5825 5823 5821 5818 5816 5813 5811
5831 5832 5833 5834 5835 5835 5836 5836 5837 5838 5838 5838 5839 5839 5838 5838 5839 5838 5838 5837 5837 5837 5836 5836 5835 5834 5832 5831 5830 5829 5827 5826 5824 5822 5819 5818 5816 5814 5812 5809 5806 5803 5800
5826 5827 5828 5829 5829 5830 5831 5831 5831 5832 5833 5833 5833 5833 5833 5833 5833 5833 5832 5832 5831 5831 5830 5829 5828 5827 5825 5824 5822 5820 5819 5817 5815 5813 5811 5808 5806 5804 5802 5800 5796 5793 5790